Location: Stilling
(56.0622°N, 9.9882°E)
Time: 00:30:42
(UTC+00:00)

YAOGAN 11 - Pass Details

Date: 13 July 2020
Orbit: 615 x 667 km, 98.3° (Epoch: 03 August)

Event Time Altitude Azimuth Distance (km) Brightness Sun altitude
Exits shadow 23:06:43 17° 160° (SSE) 1,617 5.6 -12.2°
Maximum altitude 23:10:08 86° 71° (ENE) 657 4.2 -12.2°
Drops below altitude 10° 23:14:40 10° 345° (NNW) 2,077 8.2 -12.3°
Sets 23:16:55 0° 345° (NNW) 3,001 9.3 -12.3°
